Romeoville, IL

8:54 PM CDT on September 21, 2017 (GMT -0500)
Lewis University

Weather History for KLOT - July, 2013

Change the Weather History Date:

Thursday, July 4, 2013

  Actual Average Record
Temperature  
Mean Temperature 70 °F 74 °F  
Max Temperature 81 °F 84 °F 99 °F (2012)
Min Temperature 59 °F 64 °F 52 °F (1997)
Degree Days  
Heating Degree Days 0 0  
Month to date heating degree days 1 0  
Since 1 June heating degree days 36 33  
Since 1 July heating degree days 1 0  
Cooling Degree Days 5 9  
Month to date cooling degree days 9 36  
Year to date cooling degree days 278 274  
Since 1 June cooling degree days 175 216  
Growing Degree Days 18 (Base 50)    
Moisture  
Dew Point 60 °F    
Average Humidity 73    
Maximum Humidity 98    
Minimum Humidity 49    
Precipitation  
Precipitation 0.00 in 0.14 in 0.57 in (2009)
Month to date precipitation T 0.54  
Year to date precipitation 25.43 19.58  
Sea Level Pressure  
Sea Level Pressure 30.08 in    
Wind  
Wind Speed 6 mph (South)    
Max Wind Speed 13 mph    
Max Gust Speed 18 mph    
Visibility 7 miles    
Events      
T = Trace of Precipitation, MM = Missing Value Source: NWS Daily Summary

Daily Weather History Graph

Daily Weather History Graph

Search for Another Location

Airport or City:

Trip Planner

Search our weather history database for the weather conditions in past years. The results will help you decide how hot, cold, wet, or windy it might be!

Date:

Astronomy

Jul. 04, 2013 Rise Set
Actual Time 5:23 AM CDT 8:29 PM CDT
Civil Twilight 4:49 AM CDT 9:03 PM CDT
Nautical Twilight 4:06 AM CDT 9:46 PM CDT
Astronomical Twilight 3:15 AM CDT 10:37 PM CDT
Moon 2:41 AM CDT (7/4) 5:33 PM CDT (7/4)
Length of Visible Light 16h 13m
Length of Day
15h 06m
Waning Crescent, 11% of the Moon is Illuminated
Jul 4
Waning Crescent
Jul 8
New
Jul 15
First Quarter
Jul 22
Full
Jul 29
Last Quarter

Hourly Weather History & Observations

Time (CDT) Temp. Heat Index Dew Point Humidity Pressure Visibility Wind Dir Wind Speed Gust Speed Precip Events Conditions
12:15 AM 59.4 °F - 58.5 °F 97% 30.08 in 3.0 mi SSW 3.5 mph - N/A   Clear
12:35 AM 59.4 °F - 58.3 °F 96% 30.08 in 4.0 mi South 5.8 mph - N/A   Clear
12:55 AM 59.0 °F - 58.1 °F 97% 30.08 in 3.0 mi South 4.6 mph - N/A   Clear
1:15 AM 59.4 °F - 58.5 °F 97% 30.08 in 3.0 mi SSE 5.8 mph - N/A   Clear
1:35 AM 58.6 °F - 57.7 °F 97% 30.08 in 2.5 mi SSE 4.6 mph - N/A   Clear
1:55 AM 58.5 °F - 57.7 °F 97% 30.08 in 3.0 mi SSE 4.6 mph - N/A   Clear
2:15 AM 58.5 °F - 57.9 °F 98% 30.07 in 2.5 mi SSE 5.8 mph - N/A   Clear
2:35 AM 57.6 °F - 56.8 °F 97% 30.07 in 3.0 mi SSE 5.8 mph - N/A   Clear
2:55 AM 57.2 °F - 56.5 °F 97% 30.07 in 2.5 mi SSE 5.8 mph - N/A   Clear
3:15 AM 57.6 °F - 57.0 °F 98% 30.08 in 3.0 mi SSE 5.8 mph - N/A   Clear
3:35 AM 57.4 °F - 56.8 °F 98% 30.08 in 2.5 mi South 5.8 mph - N/A   Clear
3:55 AM 57.4 °F - 56.7 °F 97% 30.08 in 3.0 mi South 4.6 mph - N/A   Clear
4:15 AM 57.2 °F - 56.3 °F 97% 30.08 in 2.5 mi SSE 5.8 mph - N/A   Clear
4:35 AM 56.8 °F - 56.3 °F 98% 30.08 in 2.0 mi SSE 5.8 mph - N/A   Clear
4:55 AM 57.6 °F - 57.0 °F 98% 30.09 in 2.5 mi SSE 6.9 mph - N/A   Clear
5:15 AM 57.2 °F - 56.5 °F 97% 30.09 in 2.5 mi South 6.9 mph - N/A   Clear
5:35 AM 57.2 °F - 56.3 °F 97% 30.09 in 1.5 mi SSE 5.8 mph - N/A   Scattered Clouds
5:55 AM 58.1 °F - 57.2 °F 97% 30.10 in 1.5 mi SSE 5.8 mph - N/A   Mostly Cloudy
6:15 AM 59.0 °F - 58.3 °F 97% 30.10 in 2.0 mi SSE 6.9 mph - N/A   Overcast
6:35 AM 59.7 °F - 58.5 °F 96% 30.10 in 2.0 mi SSE 3.5 mph - N/A   Mostly Cloudy
6:55 AM 60.6 °F - 59.0 °F 94% 30.11 in 3.0 mi SSE 5.8 mph - N/A   Scattered Clouds
7:15 AM 61.3 °F - 59.4 °F 93% 30.11 in 3.0 mi South 5.8 mph - N/A   Overcast
7:35 AM 63.0 °F - 59.7 °F 89% 30.11 in 4.0 mi South 4.6 mph - N/A   Scattered Clouds
7:55 AM 64.9 °F - 60.8 °F 86% 30.12 in 5.0 mi South 4.6 mph - N/A   Clear
8:15 AM 66.6 °F - 59.4 °F 78% 30.12 in 10.0 mi SSW 5.8 mph - N/A   Scattered Clouds
8:35 AM 67.8 °F - 59.7 °F 75% 30.12 in 10.0 mi SSW 5.8 mph - N/A   Scattered Clouds
8:55 AM 69.1 °F - 60.1 °F 73% 30.12 in 10.0 mi South 5.8 mph - N/A   Scattered Clouds
9:15 AM 69.8 °F - 60.4 °F 72% 30.12 in 10.0 mi South 6.9 mph - N/A   Mostly Cloudy
9:35 AM 71.1 °F - 60.3 °F 69% 30.12 in 10.0 mi SSW 5.8 mph - N/A   Clear
9:55 AM 72.7 °F - 61.3 °F 67% 30.11 in 10.0 mi SSW 5.8 mph - N/A   Clear
10:15 AM 74.1 °F - 60.6 °F 63% 30.11 in 10.0 mi WSW 5.8 mph - N/A   Clear
10:35 AM 74.5 °F - 60.4 °F 61% 30.12 in 10.0 mi WSW 8.1 mph - N/A   Clear
10:55 AM 75.4 °F - 60.8 °F 60% 30.11 in 10.0 mi WSW 5.8 mph - N/A   Clear
11:15 AM 76.8 °F - 62.1 °F 60% 30.11 in 10.0 mi SW 6.9 mph - N/A   Clear
11:35 AM 76.8 °F - 61.9 °F 60% 30.11 in 10.0 mi SSW 3.5 mph - N/A   Clear
11:55 AM 77.7 °F - 61.5 °F 57% 30.10 in 10.0 mi South 9.2 mph - N/A   Clear
12:15 PM 78.4 °F - 62.8 °F 58% 30.10 in 10.0 mi SW 5.8 mph - N/A   Clear
12:35 PM 78.4 °F - 61.7 °F 56% 30.09 in 10.0 mi South 8.1 mph - N/A   Scattered Clouds
12:55 PM 78.4 °F - 61.5 °F 56% 30.09 in 10.0 mi SW 9.2 mph - N/A   Mostly Cloudy
1:15 PM 79.3 °F - 61.2 °F 54% 30.09 in 10.0 mi SSW 9.2 mph - N/A   Mostly Cloudy
1:35 PM 79.9 °F - 59.7 °F 50% 30.08 in 10.0 mi SW 11.5 mph - N/A   Scattered Clouds
1:55 PM 80.6 °F 81.2 °F 59.5 °F 49% 30.08 in 10.0 mi SSW 10.4 mph 18.4 mph N/A   Clear
2:15 PM 81.3 °F 81.9 °F 60.4 °F 49% 30.08 in 10.0 mi South 9.2 mph 17.3 mph N/A   Scattered Clouds
2:35 PM 79.3 °F - 61.3 °F 54% 30.08 in 10.0 mi SSW 8.1 mph - N/A   Mostly Cloudy
2:55 PM 79.7 °F - 60.3 °F 51% 30.08 in 10.0 mi South 10.4 mph - N/A   Overcast
3:15 PM 78.8 °F - 60.3 °F 53% 30.07 in 10.0 mi South 12.7 mph - N/A   Mostly Cloudy
3:35 PM 79.9 °F - 61.0 °F 52% 30.07 in 10.0 mi South 12.7 mph 18.4 mph N/A   Mostly Cloudy
3:55 PM 79.3 °F - 61.5 °F 54% 30.07 in 10.0 mi SSW 10.4 mph - N/A   Scattered Clouds
4:15 PM 81.0 °F 81.8 °F 61.3 °F 51% 30.07 in 10.0 mi SSW 11.5 mph - N/A   Clear
4:35 PM 79.9 °F - 61.0 °F 52% 30.06 in 10.0 mi South 10.4 mph 16.1 mph N/A   Clear
4:55 PM 78.4 °F - 59.9 °F 53% 30.06 in 10.0 mi South 10.4 mph - N/A   Mostly Cloudy
5:15 PM 78.8 °F - 61.0 °F 54% 30.05 in 10.0 mi South 12.7 mph - N/A   Mostly Cloudy
5:35 PM 77.5 °F - 60.8 °F 56% 30.06 in 10.0 mi South 12.7 mph - N/A   Scattered Clouds
5:55 PM 77.0 °F - 60.6 °F 57% 30.06 in 10.0 mi South 11.5 mph - N/A   Clear
6:15 PM 77.9 °F - 61.0 °F 56% 30.05 in 10.0 mi South 11.5 mph - N/A   Clear
6:35 PM 77.7 °F - 60.4 °F 55% 30.06 in 10.0 mi South 11.5 mph - N/A   Clear
6:55 PM 76.8 °F - 59.5 °F 55% 30.06 in 10.0 mi South 8.1 mph - N/A   Clear
7:15 PM 76.6 °F - 60.1 °F 56% 30.05 in 10.0 mi South 11.5 mph - N/A   Scattered Clouds
7:35 PM 75.4 °F - 60.1 °F 59% 30.06 in 10.0 mi South 8.1 mph - N/A   Mostly Cloudy
7:55 PM 75.0 °F - 59.2 °F 58% 30.06 in 10.0 mi South 8.1 mph - N/A   Scattered Clouds
8:15 PM 74.3 °F - 60.1 °F 61% 30.06 in 10.0 mi South 8.1 mph - N/A   Mostly Cloudy
8:35 PM 73.0 °F - 60.4 °F 65% 30.06 in 10.0 mi South 9.2 mph - N/A   Mostly Cloudy
8:55 PM 72.1 °F - 60.8 °F 67% 30.06 in 10.0 mi South 9.2 mph - N/A   Scattered Clouds
9:15 PM 71.8 °F - 60.4 °F 67% 30.07 in 10.0 mi South 9.2 mph - N/A   Clear
9:35 PM 71.6 °F - 60.1 °F 67% 30.07 in 10.0 mi South 8.1 mph - N/A   Clear
9:55 PM 69.4 °F - 60.3 °F 73% 30.08 in 10.0 mi South 5.8 mph - N/A   Clear
10:15 PM 68.9 °F - 60.4 °F 74% 30.08 in 10.0 mi South 5.8 mph - N/A   Mostly Cloudy
10:35 PM 69.8 °F - 59.9 °F 71% 30.08 in 10.0 mi South 9.2 mph - N/A   Mostly Cloudy
10:55 PM 67.5 °F - 60.3 °F 78% 30.08 in 7.0 mi South 4.6 mph - N/A   Scattered Clouds
11:15 PM 66.9 °F - 60.3 °F 79% 30.08 in 7.0 mi South 4.6 mph - N/A   Clear
11:35 PM 66.4 °F - 60.4 °F 81% 30.07 in 7.0 mi South 6.9 mph - N/A   Clear
11:55 PM 66.2 °F - 60.3 °F 81% 30.07 in 7.0 mi South 4.6 mph - N/A   Clear